Tracking 31027 objects as of 19-Jul-2025
HD Live streaming from Space Station
objects crossing your sky now

STARLINK-6331

Track STARLINK-6331 now!
10-day predictions
STARLINK-6331 is classified as:


NORAD ID: 57351
Int'l Code: 2023-099Z
Perigee: 565.4 km
Apogee: 567.0 km
Inclination: 43.0 °
Period: 95.8 minutes
Semi major axis: 6937 km
RCS: Unknown
Launch date: July 16, 2023
Source: United States (US)
Launch site: AIR FORCE EASTERN TEST RANGE (AFETR)
Your satellite tracking list
NUSAT-20 (GRACE)
Track 1 satellite(s)




NASA's NSSDC Master Catalog

Two Line Element Set (TLE):
1 57351U 23099Z   25199.36480195 -.00000407  00000-0 -15056-4 0  9990
2 57351  43.0032  81.7437 0001167 254.6068 105.4645 15.02533194110876
Source of the keplerian elements: AFSPC